AMAZONAS 5

Last updated on Fri Apr 12 2024 01:02:38 GMT+0100 (British Summer Time)

1 42934U 17053A 24101.86214610 -.00000290 00000+0 00000+0 0 9994 2 42934 0.0389 327.4681 0004604 27.1148 94.3334 1.00270986 24131
UTC large
Height (km)
Speed (km/s)
/
Latitude / Longitude
Inclination (degrees)
Orbital Period (minutes)
Azimuth
Elevation
Range (km)
Doppler Factor

Next 0 passes for location: London (51.5072 / 0.1276)

Sorry there are no passes over London.